When you browse on this site, cookies collect data to enhance your experience and personalize the content and advertising you see.
Visit our Privacy Policy to learn more. By continuing to use the site, you agree to this use of cookies and data.
  • In United Kingdom
  • List of Countries
  • For 7 days
  • Water Temperature
  • Satellite Maps
  • Weather Map
  • Weather Widgets
  • user-avatar
    Login

    Hourly Weather Prutz

    Today, 23 April, Tuesday

    Time Temperature Precipitation Wind Pressure Humidity
    00:00 +3°C° 0 mm 4 mps 624 mmHg 84%
    01:00 +3°C° 0 mm 4 mps 624 mmHg 88%
    02:00 +3°C° 0 mm 4 mps 624 mmHg 87%
    03:00 +3°C° 0 mm 4 mps 623 mmHg 86%
    04:00 +3°C° 0 mm 4 mps 623 mmHg 85%
    05:00 +3°C° 0.1 mm 4 mps 623 mmHg 85%
    06:00 +4°C° 0.1 mm 4 mps 623 mmHg 85%
    07:00 +4°C° 0.1 mm 4 mps 623 mmHg 85%
    08:00 +5°C° 0 mm 4 mps 623 mmHg 84%
    09:00 +6°C° 0 mm 4 mps 623 mmHg 83%
    10:00 +7°C° 0 mm 4 mps 623 mmHg 82%
    11:00 +8°C° 0 mm 4 mps 623 mmHg 80%
    12:00 +10°C° 0 mm 4 mps 624 mmHg 78%
    13:00 +10°C° 0 mm 3 mps 624 mmHg 76%
    14:00 +10°C° 0 mm 3 mps 624 mmHg 75%
    15:00 +10°C° 0 mm 3 mps 624 mmHg 74%
    16:00 +10°C° 0 mm 3 mps 624 mmHg 74%
    17:00 +9°C° 0 mm 3 mps 624 mmHg 78%
    18:00 +8°C° 0 mm 3 mps 623 mmHg 82%
    19:00 +7°C° 0 mm 3 mps 623 mmHg 86%
    20:00 +5°C° 0 mm 3 mps 623 mmHg 86%
    21:00 +5°C° 0 mm 3 mps 623 mmHg 86%
    22:00 +4°C° 0 mm 4 mps 624 mmHg 87%
    23:00 +4°C° 0 mm 4 mps 624 mmHg 87%

    Tomorrow, 24 April, Wednesday

    Time Temperature Precipitation Wind Pressure Humidity
    00:00 +4°C° 0 mm 4 mps 624 mmHg 87%
    01:00 +3°C° 0 mm 4 mps 624 mmHg 87%
    02:00 +3°C° 0 mm 4 mps 624 mmHg 87%
    03:00 +3°C° 0 mm 4 mps 625 mmHg 86%
    04:00 +3°C° 0 mm 4 mps 625 mmHg 86%
    05:00 +4°C° 0 mm 4 mps 625 mmHg 84%
    06:00 +5°C° 0 mm 4 mps 626 mmHg 82%
    07:00 +5°C° 0 mm 4 mps 626 mmHg 81%
    08:00 +7°C° 0 mm 4 mps 627 mmHg 76%
    09:00 +8°C° 0 mm 4 mps 628 mmHg 71%
    10:00 +10°C° 0 mm 5 mps 628 mmHg 66%
    11:00 +10°C° 0 mm 5 mps 629 mmHg 65%
    12:00 +10°C° 0 mm 5 mps 629 mmHg 64%
    13:00 +12°C° 0 mm 5 mps 629 mmHg 62%
    14:00 +12°C° 0 mm 5 mps 629 mmHg 63%
    15:00 +12°C° 0 mm 5 mps 629 mmHg 63%
    16:00 +12°C° 0 mm 5 mps 629 mmHg 63%
    17:00 +10°C° 0 mm 5 mps 629 mmHg 69%
    18:00 +8°C° 0 mm 5 mps 629 mmHg 74%
    19:00 +7°C° 0 mm 5 mps 629 mmHg 79%
    20:00 +6°C° 0 mm 5 mps 629 mmHg 81%
    21:00 +6°C° 0 mm 4 mps 630 mmHg 83%
    22:00 +5°C° 0 mm 4 mps 631 mmHg 84%
    23:00 +5°C° 0 mm 4 mps 631 mmHg 85%

    Day after tomorrow, 25 April, Thursday

    Time Temperature Precipitation Wind Pressure Humidity
    00:00 +4°C° 0 mm 4 mps 631 mmHg 86%
    01:00 +4°C° 0 mm 4 mps 631 mmHg 87%
    02:00 +4°C° 0 mm 4 mps 631 mmHg 86%
    03:00 +3°C° 0 mm 4 mps 631 mmHg 85%
    04:00 +2°C° 0 mm 5 mps 631 mmHg 85%
    05:00 +3°C° 0 mm 5 mps 631 mmHg 81%
    06:00 +5°C° 0 mm 5 mps 632 mmHg 76%
    07:00 +5°C° 0 mm 5 mps 632 mmHg 72%
    08:00 +7°C° 0 mm 5 mps 632 mmHg 68%
    09:00 +8°C° 0 mm 5 mps 633 mmHg 63%
    10:00 +10°C° 0 mm 5 mps 633 mmHg 59%
    11:00 +12°C° 0 mm 5 mps 633 mmHg 57%
    12:00 +13°C° 0 mm 5 mps 633 mmHg 56%
    13:00 +14°C° 0 mm 5 mps 633 mmHg 54%
    14:00 +14°C° 0 mm 5 mps 633 mmHg 54%
    15:00 +14°C° 0 mm 5 mps 633 mmHg 55%
    16:00 +14°C° 0 mm 5 mps 633 mmHg 56%
    17:00 +12°C° 0.1 mm 4 mps 632 mmHg 63%
    18:00 +11°C° 0.1 mm 4 mps 632 mmHg 71%
    19:00 +8°C° 0.1 mm 4 mps 631 mmHg 78%
    20:00 +8°C° 0 mm 4 mps 631 mmHg 81%
    21:00 +7°C° 0 mm 4 mps 632 mmHg 85%
    22:00 +6°C° 0 mm 4 mps 632 mmHg 88%
    23:00 +6°C° 0 mm 4 mps 632 mmHg 88%

    26 April, Friday

    Time Temperature Precipitation Wind Pressure Humidity
    00:00 +6°C° 0 mm 4 mps 632 mmHg 89%
    01:00 +5°C° 0 mm 4 mps 632 mmHg 89%
    02:00 +5°C° 0 mm 4 mps 631 mmHg 89%
    03:00 +5°C° 0 mm 4 mps 631 mmHg 88%
    04:00 +5°C° 0 mm 4 mps 631 mmHg 87%
    05:00 +6°C° 0 mm 4 mps 631 mmHg 82%
    06:00 +7°C° 0 mm 4 mps 631 mmHg 78%
    07:00 +8°C° 0 mm 4 mps 631 mmHg 74%
    08:00 +10°C° 0 mm 4 mps 632 mmHg 66%
    09:00 +12°C° 0 mm 4 mps 633 mmHg 59%
    10:00 +13°C° 0 mm 4 mps 633 mmHg 51%
    11:00 +13°C° 0.7 mm 4 mps 633 mmHg 56%
    12:00 +12°C° 0.7 mm 3 mps 634 mmHg 61%
    13:00 +12°C° 0.7 mm 3 mps 634 mmHg 66%
    14:00 +9°C° 1.7 mm 3 mps 633 mmHg 75%
    15:00 +7°C° 1.7 mm 3 mps 632 mmHg 83%
    16:00 +5°C° 1.7 mm 2 mps 632 mmHg 92%
    17:00 +4°C° 2.9 mm 2 mps 631 mmHg 93%
    18:00 +2°C° 2.9 mm 2 mps 631 mmHg 94%
    19:00 +1°C° 2.9 mm 2 mps 631 mmHg 96%
    20:00 -1°C° 0.7 mm 2 mps 631 mmHg 94%
    21:00 -1°C° 0.7 mm 2 mps 631 mmHg 93%
    22:00 +1°C° 0.7 mm 1 mps 631 mmHg 92%
    23:00 +1°C° 0.1 mm 1 mps 631 mmHg 91%

    27 April, Saturday

    Time Temperature Precipitation Wind Pressure Humidity
    00:00 +1°C° 0.1 mm 1 mps 632 mmHg 89%
    01:00 +1°C° 0.1 mm 1 mps 632 mmHg 88%
    02:00 +1°C° 0.2 mm 1 mps 632 mmHg 89%
    03:00 +1°C° 0.2 mm 1 mps 632 mmHg 89%
    04:00 +1°C° 0.2 mm 1 mps 632 mmHg 90%
    05:00 +2°C° 0.3 mm 1 mps 632 mmHg 90%
    06:00 +3°C° 0.3 mm 1 mps 633 mmHg 90%
    07:00 +3°C° 0.3 mm 1 mps 633 mmHg 91%
    08:00 +4°C° 0.3 mm 1 mps 633 mmHg 91%
    09:00 +4°C° 0.3 mm 2 mps 634 mmHg 91%
    10:00 +4°C° 0.3 mm 2 mps 634 mmHg 91%
    11:00 +5°C° 0.2 mm 2 mps 634 mmHg 90%
    12:00 +5°C° 0.2 mm 2 mps 634 mmHg 88%
    13:00 +6°C° 0.2 mm 2 mps 635 mmHg 86%
    14:00 +6°C° 0.2 mm 2 mps 634 mmHg 85%
    15:00 +5°C° 0.2 mm 2 mps 634 mmHg 85%
    16:00 +5°C° 0.2 mm 2 mps 634 mmHg 85%
    17:00 +5°C° 0.1 mm 2 mps 634 mmHg 87%
    18:00 +5°C° 0.1 mm 1 mps 634 mmHg 89%
    19:00 +4°C° 0.1 mm 1 mps 634 mmHg 92%
    20:00 +3°C° 0 mm 1 mps 634 mmHg 93%
    21:00 +3°C° 0 mm 1 mps 634 mmHg 94%
    22:00 +2°C° 0 mm 1 mps 634 mmHg 94%
    23:00 +1°C° 0 mm 1 mps 634 mmHg 93%

    28 April, Sunday

    Time Temperature Precipitation Wind Pressure Humidity
    00:00 -1°C° 0 mm 2 mps 633 mmHg 91%
    01:00 -1°C° 0 mm 2 mps 633 mmHg 90%
    02:00 -1°C° 0 mm 2 mps 633 mmHg 87%
    03:00 -1°C° 0 mm 2 mps 633 mmHg 84%
    04:00 -1°C° 0 mm 2 mps 632 mmHg 81%
    05:00 +1°C° 0.1 mm 2 mps 633 mmHg 79%
    06:00 +2°C° 0.1 mm 2 mps 633 mmHg 77%
    07:00 +3°C° 0.1 mm 2 mps 633 mmHg 76%
    08:00 +3°C° 0.6 mm 2 mps 633 mmHg 79%
    09:00 +3°C° 0.6 mm 2 mps 633 mmHg 82%
    10:00 +3°C° 0.6 mm 2 mps 633 mmHg 84%
    11:00 +3°C° 0.4 mm 2 mps 633 mmHg 84%
    12:00 +3°C° 0.4 mm 2 mps 633 mmHg 84%
    13:00 +4°C° 0.4 mm 2 mps 633 mmHg 84%
    14:00 +4°C° 0.1 mm 2 mps 633 mmHg 82%
    15:00 +4°C° 0.1 mm 2 mps 633 mmHg 79%
    16:00 +5°C° 0.1 mm 2 mps 633 mmHg 77%
    17:00 +4°C° 0 mm 2 mps 632 mmHg 81%
    18:00 +4°C° 0 mm 1 mps 632 mmHg 86%
    19:00 +3°C° 0 mm 1 mps 632 mmHg 90%
    20:00 +2°C° 0 mm 1 mps 632 mmHg 90%
    21:00 +2°C° 0 mm 1 mps 632 mmHg 90%
    22:00 -1°C° 0 mm 2 mps 632 mmHg 90%
    23:00 -1°C° 0 mm 2 mps 632 mmHg 85%
    Show more